Miscellaneous Local Product
Issued by NWS Hastings, NE

Home | Current Version | Previous Version | Graphics & Text | Print | Product List | Glossary On
Versions: 1 2 3 4 5 6 7 8 9 10 11 12 13 14 15 16 17 18 19 20 21 22 23 24 25 26 27 28 29 30 31 32 33 34 35 36 37 38 39 40 41 42 43 44 45 46 47 48 49 50
000
AXUS43 KGID 190102
MISGRI

GID CWA HOURLY WEATHER ROUNDUP
NATIONAL WEATHER SERVICE HASTINGS NE
800 PM CDT TUE JUL 18 2017

NOTE: "FAIR" INDICATES FEW OR NO CLOUDS BELOW 12,000 FEET WITH NO
SIGNIFICANT WEATHER AND/OR OBSTRUCTIONS TO VISIBILITY.

...SOUTH CENTRAL NEBRASKA...

CITY           SKY/WX    TMP DP  RH WIND       PRES   REMARKS
GRAND ISLAND   CLEAR     84  77  79 NE8       30.00S HX  94
HASTINGS       CLEAR     85  77  77 NE9       29.99S HX  95
ORD            MOSUNNY   86  69  56 SE7       29.98F HX  90
YORK           CLEAR     84  79  84 NE7       29.99S HX  96
AURORA         CLEAR     83  79  86 NE7       29.99S HX  94
LEXINGTON      SUNNY     83  72  71 E7        30.01R
HOLDREGE       SUNNY     82  73  76 NE10      29.99S
HEBRON         CLEAR     90  73  58 SE8       29.94R HX  98

...NEBRASKA PANHANDLE...

CITY           SKY/WX    TMP DP  RH WIND       PRES   REMARKS
CHADRON        SUNNY     87  60  40 SE7       30.03S
ALLIANCE       SUNNY     89  58  34 E10       30.06R
SCOTTSBLUFF    SUNNY     90  59  35 E9        30.06R
SIDNEY         SUNNY     91  58  32 VRB7      30.10R HX  90

...WESTERN AND NORTH CENTRAL NEBRASKA...

CITY           SKY/WX    TMP DP  RH WIND       PRES   REMARKS
VALENTINE      SUNNY     91  59  33 SE8       30.02F HX  90
AINSWORTH      MOSUNNY   84  69  61 E7        30.04S
ONEILL         PTSUNNY   86  71  59 E7        30.02S HX  91
BROKEN BOW     PTSUNNY   84  70  62 SE9       30.01F
IMPERIAL       MOSUNNY   83  69  62 E9        30.04R
NORTH PLATTE   MOSUNNY   84  72  67 SE9       30.01R
MCCOOK         SUNNY     84  73  69 NE10      30.00R HX  90

...EASTERN NEBRASKA...

CITY           SKY/WX    TMP DP  RH WIND       PRES   REMARKS
NORFOLK        CLEAR     85  71  63 CALM      30.00R HX  90
SO SIOUX CITY  CLEAR     87  74  64 S6        29.98S HX  95
TEKAMAH        CLEAR     86  75  69 SE6       29.98R HX  95
COLUMBUS       PTCLDY    87  75  67 SE6       29.99S HX  96
ALBION         PTCLDY    86  73  64 E5        30.00S HX  92
OMAHA EPPLEY   PTCLDY    87  75  67 E9        29.99R HX  96
OFFUTT AFB     CLEAR     85  76  75 E6        29.98S HX  94
MILLARD        CLEAR     87  78  74 SE8       29.99R HX 100
LINCOLN        CLEAR     89  72  56 E6        29.98R HX  96
NEBRASKA CITY  MOCLDY    83  82  95 E7        29.99S HX  98
BEATRICE       CLEAR     89  75  63 SE7       29.97R HX  98
FALLS CITY     CLEAR     85  72  65 SE9       29.97S HX  91

...NORTHERN KANSAS...

CITY           SKY/WX    TMP DP  RH WIND       PRES   REMARKS
GOODLAND       MOSUNNY   88  64  44 E9        30.03R
HILL CITY      SUNNY     94  73  50 NE16      29.92S HX 103
NORTON         CLEAR     88  72  58 N10G20    29.96  HX  94
PHILLIPSBURG   SUNNY     91  72  52 NE13      29.91S HX  98
SMITH CENTER   CLOUDY    90  68  48 E8G17     29.93R HX  93
HAYS           CLEAR     98  67  36 S15       29.91S HX 102
RUSSELL        CLEAR     96  66  37 S18       29.92R HX  99
CONCORDIA      PTCLDY    89  72  56 SE10      29.93S HX  96
SALINA         CLEAR     97  66  36 SE16      29.94S HX 100
TOPEKA         CLEAR     87  74  64 SE7       30.00S HX  95



USA.gov is the U.S. government's official web portal to all federal, state and local government web resources and services.